SCP
1 1 1 0 0 0 0 0 0 0 0 0 0 0 0 0 0 0 0 0 0 0 0 0 0 0 0 0 0 0 0 0 0 0 0 0 0 0 0 0 0 0 0 0
1 1 1 0 0 1 0 0 0 0 0 0 0 0 0 0 0 0 0 0 0 0 0 0 0 0 0 0 0 0 0 0 0 0 0 0 0 0 0 0 0 0 0 0
1 1 1 1 1 1 0 0 0 0 0 0 0 0 0 0 0 0 0 0 0 0 0 0 0 0 0 0 0 0 0 0 0 0 0 0 0 0 0 0 0 0 0 0
1 1 1 1 1 1 0 0 0 0 0 0 0 0 0 0 0 0 0 0 0 0 0 0 0 0 0 0 0 0 0 0 0 0 0 0 0 0 0 0 0 0 0 0
1 1 1 1 1 0 0 0 0 0 0 0 0 0 0 0 0 0 0 0 0 0 0 0 0 0 0 0 0 0 0 0 0 0 0 0 0 0 0 0 0 0 0 0
0 0 0 0 0 0 0 0 0 0 0 0 0 0 0 0 0 0 0 0 0 0 0 0 0 0 0 0 0 0 0 0 0 0 0 0 0 0 0 0 0 0 0 0
0 0 0 0 0 0 0 0 0 0 0 0 0 0 0 0 0 0 0 0 0 0 0 0 0 0 0 0 0 0 0 0 0 0 0 0 0 0 0 0 0 0 0 0
0 0 0 0 0 0 0 0 0 0 0 0 0 0 0 0 0 0 0 0 0 0 0 0 0 0 0 0 0 0 0 0 0 0 0 0 0 0 0 0 0 0 0 0
0 0 0 0 0 0 0 0 0 0 0 0 0 0 0 0 0 0 0 0 0 0 0 0 0 0 0 0 0 0 0 0 0 0 0 0 0 0 0 0 0 0 0 0
0 0 0 0 0 0 0 0 0 0 0 0 0 0 0 0 0 0 0 0 0 0 0 0 0 0 0 0 0 0 0 0 0 0 0 0 0 0 0 0 0 0 0 0
0 0 0 0 0 0 0 0 0 0 0 0 0 0 0 0 0 0 0 0 0 0 0 0 0 0 0 0 0 0 0 0 0 0 0 0 0 0 0 0 0 0 0 0
0 0 0 0 0 0 0 0 0 0 0 0 0 0 0 -0 0 0 0 0 0 0 0 0 0 0 0 0 0 0 0 0 0 0 0 0 0 0 0 0 0 0 0 0
0 0 0 0 0 0 0 0 0 0 0 0 0 0 0 0 0 0 0 0 0 0 0 0 0 0 0 0 0 0 0 0 0 0 0 0 0 0 0 0 0 0 0 0
0 0 0 0 0 0 0 0 0 0 0 0 0 0 0 0 0 0 0 0 0 0 0 0 0 0 0 0 0 0 0 0 0 0 0 0 0 0 0 0 0 0 0 0
0 0 0 0 0 0 0 0 0 0 0 0 0 0 0 0 0 0 0 0 0 0 0 0 0 0 0 0 0 0 0 0 0 0 0 0 0 0 0 0 0 0 0 0
0 0 0 0 0 0 0 0 0 0 0 0 0 0 0 0 0 0 0 0 0 0 0 0 0 0 0 0 0 0 0 0 0 0 0 0 0 0 0 0 0 0 0 0
0 0 0 0 0 0 0 0 0 0 0 0 0 0 0 0 0 0 0 0 0 0 0 0 0 0 0 0 0 0 0 0 0 0 0 0 0 0 0 0 0 0 0 0
0 0 0 0 0 0 0 0 0 0 0 0 0 0 0 0 0 0 0 0 0 0 0 0 0 0 0 0 0 0 0 0 0 0 0 0 0 0 0 0 0 0 0 0
0 0 0 0 0 0 0 0 0 0 0 0 0 0 0 0 0 0 0 0 0 0 0 0 0 0 0 0 0 0 0 0 0 0 0 0 0 0 0 0 0 0 0 0
0 0 0 0 0 0 0 0 0 0 0 0 0 0 0 0 0 0 0 0 0 0 0 0 0 0 0 0 0 0 0 0 0 0 0 0 0 0 0 0 0 0 0 0
0 0 0 0 0 0 0 0 0 0 0 0 0 0 0 0 0 0 0 0 0 0 0 0 0 0 0 0 0 0 0 0 0 0 0 0 0 0 0 0 0 0 0 0
0 0 0 0 0 0 0 0 0 0 0 0 0 0 0 0 0 0 0 0 0 0 0 0 0 0 0 0 0 0 0 0 0 0 0 0 0 0 0 0 0 0 0 0
0 0 0 0 0 0 0 0 0 0 0 0 0 0 0 0 0 0 0 0 0 0 0 0 0 0 0 0 0 0 0 0 0 0 0 0 0 0 0 0 0 0 0 0
0 0 0 0 0 0 0 0 0 0 0 0 0 0 0 0 0 0 0 0 0 0 0 0 0 0 0 0 0 0 0 0 0 0 0 0 0 0 0 0 0 0 0 0
0 0 0 0 0 0 0 0 0 0 0 0 0 0 0 0 0 0 0 0 0 0 0 0 0 0 0 0 0 0 0 0 0 0 0 0 0 0 0 0 0 0 0 0
0 0 0 0 0 0 0 0 0 0 0 0 0 0 0 0 0 0 0 0 0 0 0 0 0 0 0 0 0 0 0 0 0 0 0 0 0 0 0 0 0 0 0 0
Wind_Speed
4 5 5 8 7 4 4 4 4 5 3 5 6 7 6 4 6 7 6 6 6 6 3 2 2 2 2 0 0 1 2 2 2 2 2 2 3 3 3 3 3 4 3 3
4 3 6 5 5 4 4 3 4 3 2 4 3 5 4 4 7 7 8 8 7 5 3 3 3 2 2 1 1 2 2 2 2 1 1 2 2 3 3 3 4 4 4 3
6 4 6 7 6 5 4 5 4 2 2 2 1 6 3 2 2 3 4 5 6 7 6 5 4 3 2 3 3 2 3 3 2 2 1 2 2 2 3 3 4 4 4 3
3 2 5 6 5 6 4 5 4 2 2 2 1 3 6 3 2 3 4 5 6 6 5 5 5 4 4 4 3 2 2 2 2 2 1 1 1 2 3 3 3 5 4 4
3 4 5 5 5 7 4 2 2 2 3 1 1 1 8 2 4 6 6 6 6 6 7 7 6 5 4 3 2 2 2 3 2 2 1 1 2 2 3 3 4 4 4 4
1 1 3 4 1 4 5 6 6 5 4 1 2 3 7 4 6 5 4 6 7 7 6 5 4 3 3 2 2 2 2 3 2 2 2 1 2 3 4 4 4 4 3 3
2 1 1 2 4 2 4 5 4 4 3 4 2 3 9 6 6 6 6 7 7 6 6 6 5 5 4 4 3 2 2 3 3 2 2 2 2 2 3 3 3 4 3 3
2 2 2 3 5 5 4 6 6 4 4 4 2 5 8 5 3 3 4 5 5 6 6 6 6 6 5 5 4 3 3 3 3 3 3 3 2 2 2 2 2 3 3 3
4 3 2 1 2 8 6 3 5 6 2 1 5 6 8 1 0 1 3 4 6 7 7 7 6 6 6 5 5 4 3 3 3 3 3 3 3 2 3 3 2 2 3 3
4 1 2 0 4 4 4 7 5 5 4 2 5 5 5 5 5 4 4 6 7 6 6 6 6 6 6 5 4 3 3 3 3 2 2 2 2 3 3 2 3 3 4 3
2 3 2 1 3 5 4 4 5 5 5 5 3 8 7 7 7 7 8 7 7 7 7 7 6 5 5 4 3 3 3 3 3 2 2 2 3 3 3 2 3 3 3 4
3 4 0 3 2 2 4 6 7 5 3 4 3 10 6 6 6 6 7 6 6 6 6 6 5 4 4 4 4 4 3 3 3 2 2 2 3 3 3 3 4 3 3 4
5 5 3 5 5 1 2 3 4 6 6 5 4 9 5 2 3 5 6 6 5 5 5 4 4 4 4 5 4 4 3 3 3 2 1 2 2 3 3 3 4 3 3 4
5 4 5 6 6 3 2 4 5 6 5 5 8 9 8 5 6 6 6 6 5 5 6 5 5 5 5 4 4 4 4 3 2 2 1 2 3 3 3 3 3 3 3 3
4 2 3 5 4 3 4 5 6 7 8 9 9 9 11 9 8 7 6 5 5 5 6 7 7 6 5 4 4 4 4 3 2 2 2 3 3 2 2 3 3 3 3 3
3 2 1 2 2 2 4 6 6 7 5 7 5 9 11 6 3 4 6 7 7 8 8 8 7 6 6 6 5 4 4 3 2 2 3 2 2 2 2 3 3 3 3 3
2 4 3 3 4 2 6 8 7 6 7 9 10 12 5 4 7 8 8 8 9 9 8 8 8 8 8 7 6 6 5 3 3 3 3 2 2 2 2 2 2 3 3 3
6 5 3 1 2 4 10 4 5 6 7 8 8 7 6 8 6 5 6 9 9 8 8 7 7 7 6 5 5 4 3 4 3 3 3 2 2 2 2 2 2 3 2 2
5 7 4 3 2 7 10 5 5 5 7 7 8 7 3 2 2 3 5 8 9 9 8 7 7 6 5 6 6 5 4 4 3 3 4 3 3 3 2 2 3 2 2 3
5 5 6 4 3 6 10 4 2 3 6 5 6 6 4 6 2 7 5 6 6 5 5 5 5 5 5 5 6 6 5 4 4 5 5 3 3 3 3 4 3 2 2 3
2 3 4 5 4 9 10 4 3 3 8 4 5 6 9 9 8 5 3 5 5 5 5 6 6 5 5 5 7 6 5 5 6 4 3 2 3 3 4 3 2 2 2 2
6 5 5 5 4 10 4 4 6 8 4 3 4 6 8 7 3 2 4 5 6 6 6 6 6 4 3 5 7 6 5 5 3 2 2 2 2 2 2 2 2 2 2 2
6 8 7 9 9 6 3 6 5 3 4 4 4 5 6 5 5 4 4 5 5 6 6 6 6 5 3 4 5 6 4 3 3 2 2 2 1 1 1 1 2 2 1 1
4 3 3 5 9 7 7 6 5 5 6 5 5 4 6 6 6 6 5 5 5 5 6 6 7 6 4 4 4 4 3 3 4 3 2 1 1 1 1 1 1 1 1 2
5 4 3 6 8 8 7 5 4 3 4 4 4 5 6 7 6 6 6 6 6 6 5 6 7 7 5 4 3 2 3 4 4 3 1 1 1 1 1 1 1 1 1 1
6 7 6 8 7 5 9 7 4 5 6 6 4 4 4 7 7 6 6 6 6 7 6 6 6 6 5 5 3 2 3 4 5 3 1 1 1 0 0 1 2 1 1 3
Wind_Direction
126 112 168 192 186 178 171 188 236 247 195 175 221 254 263 210 202 210 209 204 208 216 218 185 175 162 135 125 310 307 320 321 344 345 335 329 322 318 324 322 324 325 321 312
92 186 198 166 157 154 170 209 252 278 166 181 242 272 273 214 210 208 204 204 203 202 193 189 185 176 182 217 246 276 292 305 312 296 283 269 281 293 292 311 329 334 331 325
157 199 164 148 158 162 194 203 220 230 56 50 10 318 307 295 241 208 196 195 194 194 195 197 194 205 212 233 240 256 274 293 307 322 332 337 343 334 340 339 337 332 330 327
157 189 155 153 179 168 224 223 201 166 104 310 67 291 292 298 292 238 213 194 198 196 190 194 199 210 221 235 243 254 272 292 308 335 355 352 340 321 298 300 306 317 329 332
181 173 159 179 199 174 197 70 110 109 128 16 16 184 285 317 266 251 227 209 203 198 192 198 205 213 225 231 236 250 275 293 310 328 338 342 321 294 301 310 324 330 332 335
153 207 192 193 142 147 121 74 58 52 73 331 242 178 277 243 230 245 222 206 201 197 197 205 211 210 231 235 242 252 275 289 307 323 329 322 313 316 326 329 335 334 329 330
22 323 246 141 106 85 99 93 40 7 12 258 266 201 252 255 241 226 216 207 198 191 190 200 205 211 224 232 238 245 261 280 299 313 313 306 302 305 305 310 318 324 326 323
139 266 231 189 170 155 151 138 153 192 225 277 316 242 257 264 273 236 205 187 182 191 198 206 211 213 222 232 234 236 250 269 290 299 301 307 310 301 295 298 299 305 302 301
158 240 279 201 151 128 131 153 154 129 151 300 291 290 302 257 303 137 158 170 195 203 206 212 215 216 221 229 231 226 238 260 277 284 298 308 314 309 305 306 306 306 307 311
145 180 316 62 84 41 128 141 105 112 136 275 301 286 259 253 241 228 213 213 218 212 212 216 217 218 221 225 232 230 230 244 261 274 286 300 305 310 311 319 323 323 321 326
123 127 337 56 166 170 117 99 101 104 141 152 264 275 233 226 219 215 224 221 215 210 210 212 216 218 217 221 224 230 238 247 263 269 282 305 311 318 327 327 320 322 326 331
132 115 262 274 278 199 173 162 147 147 191 164 179 267 266 242 234 217 226 227 216 210 207 206 208 204 206 218 223 227 236 240 245 253 275 296 312 325 330 325 324 330 330 330
138 112 64 356 346 359 143 143 140 123 116 150 175 263 290 278 236 224 224 227 216 208 202 196 195 201 212 220 225 229 233 237 243 242 267 300 313 319 316 315 322 331 334 336
119 120 160 192 222 220 215 172 154 133 148 196 220 249 284 268 244 236 227 222 207 204 199 195 202 211 216 221 223 226 234 232 228 220 243 280 291 300 304 313 325 330 335 339
120 167 215 236 240 214 226 215 183 188 190 192 227 229 249 242 230 228 218 206 197 203 203 203 206 210 212 218 223 222 229 229 209 204 237 263 285 305 314 322 326 333 339 339
116 164 168 300 295 232 253 249 213 215 207 217 237 255 249 242 214 221 213 198 204 211 211 208 208 205 207 209 212 211 218 216 186 201 238 265 293 309 311 312 319 331 333 335
146 142 132 273 309 8 278 244 209 213 208 189 213 239 239 208 213 215 209 202 209 211 208 203 203 203 205 203 199 202 208 191 182 209 238 256 270 287 296 310 326 322 317 327
147 131 139 207 23 251 247 251 205 216 239 214 226 242 218 216 223 225 202 198 209 208 203 201 198 200 202 194 189 189 174 174 190 215 239 250 253 270 291 309 308 303 303 307
145 137 127 134 215 277 294 278 188 196 265 222 217 240 228 166 68 295 219 198 205 202 196 195 190 188 182 181 176 161 166 175 192 221 237 240 233 249 270 281 284 283 295 299
74 101 120 136 179 245 255 262 193 143 282 254 197 208 170 129 150 255 222 190 196 189 181 175 165 157 166 176 157 156 172 180 210 226 234 235 226 232 248 259 266 269 272 284
96 87 140 167 212 259 256 264 131 156 247 257 196 191 170 183 203 224 176 173 173 168 165 154 149 156 173 160 151 162 174 205 222 223 226 230 229 233 242 258 261 269 284 304
183 170 185 153 190 254 259 150 181 220 250 237 206 192 190 211 221 186 175 170 160 153 149 148 147 153 150 150 155 166 197 221 210 194 209 235 245 250 248 248 271 276 284 304
200 191 186 187 213 237 242 221 245 246 252 244 217 211 189 196 205 188 181 173 166 160 154 149 146 141 138 152 158 172 210 199 169 166 202 240 263 266 264 248 267 283 278 281
261 175 172 247 267 262 259 254 258 237 241 255 236 212 184 196 198 187 178 175 169 163 158 150 143 145 155 165 169 188 188 155 148 161 198 230 260 289 295 271 253 254 268 270
239 177 211 259 278 302 295 259 258 265 258 255 244 217 202 190 194 189 183 182 176 166 157 154 156 159 167 163 170 179 157 146 148 160 180 207 238 270 292 292 247 233 249 215
207 192 199 236 242 237 272 283 279 271 265 248 230 232 218 194 194 186 185 181 171 166 157 155 160 160 161 156 161 164 158 153 152 156 178 190 201 245 282 315 337 333 293 11